Location: Unspecified
(50.0830°N, 0.0000°E)
Time: 20:21:25
(UTC+00:00)

N. Korean satellite - Pass Details

Date: 16 November 2019
Orbit: 456 x 506 km, 97.2° (Epoch: 06 December)

Event Time Altitude Azimuth Distance (km) Brightness Sun altitude
Rises 05:48:46 0° 15° (NNE) 2,625 10.3 -13.6°
Reaches altitude 10° 05:50:53 10° 19° (NNE) 1,733 9.4 -13.2°
Maximum altitude 05:54:36 62° 100° (E) 575 7.2 -12.7°
Drops below altitude 10° 05:58:15 10° 183° (S) 1,704 9.5 -12.1°
Sets 06:00:19 0° 186° (S) 2,577 10.4 -11.8°
